Dutzow, MO

1:58 AM CST on February 21, 2017 (GMT -0600)
Washington

Weather History for KFYG - February, 2014

Change the Weather History Date:

Friday, February 21, 2014

  Actual Average (KSUS) Record (KSUS)
Temperature  
Mean Temperature 44 °F -  
Max Temperature 55 °F 45 °F 64 °F (1997)
Min Temperature 32 °F 27 °F 17 °F (2008)
Degree Days  
Heating Degree Days 22    
Moisture  
Dew Point 18 °F    
Average Humidity 37    
Maximum Humidity 65    
Minimum Humidity 21    
Precipitation  
Precipitation 0.00 in - - ()
Sea Level Pressure  
Sea Level Pressure 29.87 in    
Wind  
Wind Speed 11 mph (West)    
Max Wind Speed 21 mph    
Max Gust Speed 36 mph    
Visibility 10 miles    
Events      
Averages and records for this station are not official NWS values.
T = Trace of Precipitation, MM = Missing Value Source: NWS Daily Summary

Daily Weather History Graph

Daily Weather History Graph

Search for Another Location

Airport or City:

Trip Planner

Search our weather history database for the weather conditions in past years. The results will help you decide how hot, cold, wet, or windy it might be!

Date:

Astronomy

Feb. 21, 2014 Rise Set
Actual Time 6:47 AM CST 5:48 PM CST
Civil Twilight 6:20 AM CST 6:15 PM CST
Nautical Twilight 5:49 AM CST 6:46 PM CST
Astronomical Twilight 5:18 AM CST 7:17 PM CST
Moon No Moon Rise 10:16 AM CST
Length of Visible Light 11h 55m
Length of Day
11h 01m
Waning Gibbous, 60% of the Moon is Illuminated
Feb 21
Waning Gibbous
Feb 22
Last Quarter
Mar 1
New
Mar 8
First Quarter
Mar 16
Full

Hourly Weather History & Observations

Time (CST) Temp. Windchill Dew Point Humidity Pressure Visibility Wind Dir Wind Speed Gust Speed Precip Events Conditions
12:15 AM 39.2 °F 33.6 °F 28.4 °F 65% 29.71 in 10.0 mi WSW 8.1 mph - N/A   Clear
12:55 AM 39.2 °F 35.0 °F 26.6 °F 61% 29.73 in 10.0 mi West 5.8 mph - N/A   Partly Cloudy
1:15 AM 39.2 °F 35.0 °F 26.6 °F 61% 29.74 in 10.0 mi West 5.8 mph - N/A   Scattered Clouds
1:35 AM 39.2 °F 30.5 °F 21.2 °F 49% 29.75 in 10.0 mi West 16.1 mph 23.0 mph N/A   Partly Cloudy
1:55 AM 39.2 °F 30.5 °F 19.4 °F 45% 29.76 in 10.0 mi West 16.1 mph 35.7 mph N/A   Clear
2:15 AM 37.4 °F 30.3 °F 19.4 °F 48% 29.78 in 10.0 mi West 10.4 mph 20.7 mph N/A   Clear
2:35 AM 37.4 °F 30.8 °F 19.4 °F 48% 29.78 in 10.0 mi WNW 9.2 mph 20.7 mph N/A   Scattered Clouds
2:55 AM 37.4 °F 29.8 °F 19.4 °F 48% 29.79 in 10.0 mi WNW 11.5 mph 19.6 mph N/A   Partly Cloudy
3:15 AM 37.4 °F 29.3 °F 19.4 °F 48% 29.80 in 10.0 mi WNW 12.7 mph 19.6 mph N/A   Clear
3:35 AM 37.4 °F 28.2 °F 19.4 °F 48% 29.81 in 10.0 mi West 16.1 mph 26.5 mph N/A   Clear
3:55 AM 35.6 °F 27.1 °F 19.4 °F 52% 29.82 in 10.0 mi West 12.7 mph 26.5 mph N/A   Clear
4:15 AM 35.6 °F 25.9 °F 19.4 °F 52% 29.83 in 10.0 mi WNW 16.1 mph 24.2 mph N/A   Clear
4:35 AM 35.6 °F 25.2 °F 19.4 °F 52% 29.84 in 10.0 mi West 18.4 mph 29.9 mph N/A   Clear
4:55 AM 35.6 °F 26.6 °F 17.6 °F 48% 29.86 in 10.0 mi West 13.8 mph 28.8 mph N/A   Clear
5:15 AM 35.6 °F 27.5 °F 17.6 °F 48% 29.87 in 10.0 mi WNW 11.5 mph 28.8 mph N/A   Clear
5:35 AM 35.6 °F 27.5 °F 17.6 °F 48% 29.87 in 10.0 mi West 11.5 mph 23.0 mph N/A   Clear
5:55 AM 35.6 °F 26.6 °F 17.6 °F 48% 29.88 in 10.0 mi West 13.8 mph 21.9 mph N/A   Clear
6:15 AM 33.8 °F 23.9 °F 15.8 °F 48% 29.89 in 10.0 mi WNW 15.0 mph 21.9 mph N/A   Clear
6:35 AM 33.8 °F 27.0 °F 15.8 °F 48% 29.90 in 10.0 mi West 8.1 mph 16.1 mph N/A   Clear
6:55 AM 33.8 °F 25.3 °F 14.0 °F 44% 29.90 in 10.0 mi WNW 11.5 mph 20.7 mph N/A   Clear
7:15 AM 32.0 °F 24.2 °F 14.0 °F 48% 29.91 in 10.0 mi West 9.2 mph - N/A   Clear
7:35 AM 33.8 °F 25.8 °F 14.0 °F 44% 29.92 in 10.0 mi West 10.4 mph 18.4 mph N/A   Clear
7:55 AM 35.6 °F 27.1 °F 14.0 °F 41% 29.92 in 10.0 mi West 12.7 mph 20.7 mph N/A   Clear
8:15 AM 35.6 °F 26.6 °F 14.0 °F 41% 29.93 in 10.0 mi WNW 13.8 mph 20.7 mph N/A   Clear
8:35 AM 37.4 °F 28.2 °F 14.0 °F 38% 29.94 in 10.0 mi WNW 16.1 mph 23.0 mph N/A   Clear
8:55 AM 37.4 °F 28.9 °F 15.8 °F 41% 29.94 in 10.0 mi WNW 13.8 mph 18.4 mph N/A   Clear
9:15 AM 39.2 °F 32.0 °F 15.8 °F 39% 29.94 in 10.0 mi WNW 11.5 mph 19.6 mph N/A   Clear
9:35 AM 39.2 °F 30.5 °F 15.8 °F 39% 29.95 in 10.0 mi WNW 16.1 mph 24.2 mph N/A   Clear
9:55 AM 39.2 °F 30.5 °F 14.0 °F 36% 29.95 in 10.0 mi WNW 16.1 mph 21.9 mph N/A   Clear
10:15 AM 41.0 °F 34.3 °F 15.8 °F 36% 29.95 in 10.0 mi WNW 11.5 mph 20.7 mph N/A   Clear
10:35 AM 41.0 °F 33.9 °F 15.8 °F 36% 29.95 in 10.0 mi WNW 12.7 mph 21.9 mph N/A   Clear
10:55 AM 44.6 °F 39.7 °F 17.6 °F 34% 29.95 in 10.0 mi WNW 9.2 mph - N/A   Clear
11:15 AM 44.6 °F 38.4 °F 15.8 °F 31% 29.95 in 10.0 mi WNW 12.7 mph 17.3 mph N/A   Clear
11:35 AM 46.4 °F 41.1 °F 17.6 °F 32% 29.94 in 10.0 mi WNW 11.5 mph - N/A   Clear
12:15 PM 48.2 °F - 15.8 °F 27% 29.92 in 10.0 mi WNW 11.5 mph 18.4 mph N/A   Clear
12:35 PM 48.2 °F - 17.6 °F 30% 29.92 in 10.0 mi WSW 10.4 mph - N/A   Clear
12:55 PM 50.0 °F - 15.8 °F 26% 29.90 in 10.0 mi West 9.2 mph - N/A   Clear
1:15 PM 50.0 °F - 17.6 °F 28% 29.89 in 10.0 mi WSW 9.2 mph - N/A   Clear
1:35 PM 51.8 °F - 15.8 °F 24% 29.88 in 10.0 mi WSW 12.7 mph 23.0 mph N/A   Clear
1:55 PM 53.6 °F - 17.6 °F 24% 29.88 in 10.0 mi West 9.2 mph 21.9 mph N/A   Clear
2:15 PM 53.6 °F - 15.8 °F 22% 29.87 in 10.0 mi WSW 11.5 mph 17.3 mph N/A   Clear
2:35 PM 53.6 °F - 15.8 °F 22% 29.87 in 10.0 mi WSW 10.4 mph 21.9 mph N/A   Clear
2:55 PM 55.4 °F - 17.6 °F 23% 29.86 in 10.0 mi SW 13.8 mph 17.3 mph N/A   Clear
3:35 PM 55.4 °F - 17.6 °F 23% 29.85 in 10.0 mi WSW 13.8 mph 21.9 mph N/A   Clear
3:55 PM 55.4 °F - 17.6 °F 23% 29.84 in 10.0 mi SSW 20.7 mph 24.2 mph N/A   Clear
4:15 PM 55.4 °F - 15.8 °F 21% 29.83 in 10.0 mi SSW 13.8 mph 20.7 mph N/A   Clear
4:55 PM 55.4 °F - 17.6 °F 23% 29.84 in 10.0 mi WSW 10.4 mph - N/A   Clear
5:15 PM 55.4 °F - 17.6 °F 23% 29.84 in 10.0 mi SW 13.8 mph 17.3 mph N/A   Clear
5:35 PM 55.4 °F - 17.6 °F 23% 29.84 in 10.0 mi SW 12.7 mph 20.7 mph N/A   Clear
5:55 PM 53.6 °F - 17.6 °F 24% 29.85 in 10.0 mi WSW 11.5 mph 16.1 mph N/A   Clear
6:15 PM 53.6 °F - 17.6 °F 24% 29.85 in 10.0 mi SW 9.2 mph - N/A   Clear
6:35 PM 51.8 °F - 17.6 °F 26% 29.86 in 10.0 mi SW 8.1 mph - N/A   Clear
6:55 PM 51.8 °F - 17.6 °F 26% 29.86 in 10.0 mi SW 6.9 mph - N/A   Partly Cloudy
7:35 PM 50.0 °F - 17.6 °F 28% 29.86 in 10.0 mi SSW 6.9 mph - N/A   Overcast
7:55 PM 48.2 °F - 19.4 °F 32% 29.86 in 10.0 mi South 8.1 mph - N/A   Overcast
8:15 PM 50.0 °F - 17.6 °F 28% 29.87 in 10.0 mi SSW 6.9 mph - N/A   Overcast
8:35 PM 48.2 °F - 17.6 °F 30% 29.87 in 10.0 mi SSW 8.1 mph - N/A   Overcast
8:55 PM 48.2 °F - 17.6 °F 30% 29.88 in 10.0 mi West 8.1 mph - N/A   Overcast
9:15 PM 51.8 °F - 15.8 °F 24% 29.90 in 10.0 mi West 8.1 mph 18.4 mph N/A   Overcast
9:35 PM 48.2 °F - 17.6 °F 30% 29.91 in 10.0 mi Calm Calm - N/A   Overcast
9:55 PM 50.0 °F - 17.6 °F 28% 29.91 in 10.0 mi WSW 4.6 mph - N/A   Scattered Clouds
10:15 PM 48.2 °F - 17.6 °F 30% 29.92 in 10.0 mi NNW 4.6 mph - N/A   Mostly Cloudy
10:35 PM 48.2 °F - 17.6 °F 30% 29.92 in 10.0 mi Calm Calm - N/A   Mostly Cloudy
10:55 PM 46.4 °F - 17.6 °F 32% 29.93 in 10.0 mi Calm Calm - N/A   Scattered Clouds
11:15 PM 42.8 °F - 19.4 °F 39% 29.93 in 10.0 mi Calm Calm - N/A   Partly Cloudy
11:35 PM 44.6 °F - 17.6 °F 34% 29.94 in 10.0 mi Calm Calm - N/A   Partly Cloudy
11:55 PM 39.2 °F - 23.0 °F 52% 29.94 in 10.0 mi Calm Calm - N/A   Clear